Вернуться в каталог

ONEWEB-0036

АктивенСвязьPO
NORAD 45144·PAYLOAD·🇬🇧 United Kingdom

Запущен Feb 6, 2020 с Baikonur Cosmodrome

Loading…

Ближайшие Пролёты (ближайшие 24 часа)

TLE

СвежийSource: CelesTrak SupGP

Эпоха: Sep 14, 2026, 17:14 UTC

1 45144C 20008P   26257.71822176  .00002909  00000+0  83431-2 0  2571
2 45144  87.8934  18.4696 0001846 105.2514   8.0205 13.10376085    10

Отслеживайте ONEWEB-0036 в реальном времени с AllMySat

Download on the App Store